User: anonymous   Login
Location: Unspecified
(33.6439°N, 0.0000°E)
Time: 18:16:56
(UTC+00:00)
Language:

N. Korean satellite - Orbit

View from above orbital plane
View from above orbital plane
View from above satellite
View from above satellite

Ground track
Ground track

The orbit data is extracted from the following two-line orbital elements,

1 39026U 12072A   19167.17498995  .00001035  00000-0  39921-4 0  9995
2 39026  97.2105 170.4052 0039858 109.3582 251.1973 15.27799262361217
Epoch (UTC): 16 June 2019 04:11:59
Eccentricity: 0.0039858
inclination: 97.2105°
perigee height: 455 km
apogee height: 510 km
right ascension of ascending node: 170.4052°
argument of perigee: 109.3582°
revolutions per day: 15.27799262
mean anomaly at epoch: 251.1973°
orbit number at epoch: 36121

The dashed part of the orbit path shows where the satellite is in the earth's shadow,  

DLR